Location: Guilderland
(42.7045°N, 73.9115°W)
Time: 18:02:36
(UTC+00:00)

CZ-2D R/B - Pass Details

Date: 24 January 2020
Orbit: 522 x 538 km, 97.4° (Epoch: 22 February)

Event Time Altitude Azimuth Distance (km) Brightness Sun altitude
Rises 23:31:47 0° 164° (SSE) 2,649 6.7 -17.2°
Reaches altitude 10° 23:33:52 10° 163° (SSE) 1,767 5.8 -17.5°
Maximum altitude 23:37:40 80° 77° (ENE) 545 3.1 -18.2°
Drops below altitude 10° 23:41:32 10° 350° (N) 1,791 5.9 -18.9°
Sets 23:43:40 0° 350° (N) 2,689 6.9 -19.3°
